This is the latest recevied weather packets stored in our database for station/object DH6PF-10. If no packets are shown the sender has not sent any weather packets the latest 10 day(s).
| Time | Temp. | Humidity | Pressure | Rain* | Wind** | Luminosity | Snow |
|---|---|---|---|---|---|---|---|
| 1787719310 | 13.89° C | 97% | 1018 hPa | - | - | - | - |
| 1787718710 | 13.89° C | 97% | 1018 hPa | - | - | - | - |
| 1787718110 | 13.89° C | 97% | 1018.1 hPa | - | - | - | - |
| 1787717510 | 13.89° C | 97% | 1018.2 hPa | - | - | - | - |
| 1787716910 | 13.89° C | 96% | 1017.9 hPa | - | - | - | - |
| 1787716310 | 14.44° C | 96% | 1018.2 hPa | - | - | - | - |
| 1787715710 | 14.44° C | 96% | 1017.9 hPa | - | - | - | - |
| 1787715110 | 14.44° C | 96% | 1018.2 hPa | - | - | - | - |
| 1787714510 | 14.44° C | 97% | 1018.2 hPa | - | - | - | - |
| 1787713910 | 14.44° C | 97% | 1018.2 hPa | - | - | - | - |
| 1787713310 | 13.89° C | 97% | 1018.2 hPa | - | - | - | - |
| 1787712710 | 13.89° C | 97% | 1018.4 hPa | - | - | - | - |
| 1787712110 | 13.33° C | 97% | 1018.6 hPa | - | - | - | - |
| 1787711510 | 13.33° C | 97% | 1018.3 hPa | - | - | - | - |
| 1787710910 | 13.33° C | 97% | 1018.2 hPa | - | - | - | - |
| 1787710310 | 13.33° C | 97% | 1018.2 hPa | - | - | - | - |
| 1787709710 | 12.78° C | 97% | 1018.1 hPa | - | - | - | - |
| 1787709110 | 12.78° C | 97% | 1018 hPa | - | - | - | - |
| 1787708510 | 12.78° C | 97% | 1018.1 hPa | - | - | - | - |
| 1787707910 | 12.78° C | 97% | 1018 hPa | - | - | - | - |
| 1787707310 | 13.33° C | 96% | 1018.2 hPa | - | - | - | - |
| 1787706710 | 12.78° C | 97% | 1018 hPa | - | - | - | - |
| 1787706110 | 13.33° C | 96% | 1017.9 hPa | - | - | - | - |
| 1787705510 | 13.33° C | 96% | 1017.8 hPa | - | - | - | - |
| 1787704910 | 13.89° C | 96% | 1017.8 hPa | - | - | - | - |
* Rain since midnight (hover to see other rain measurements)
** Current wind speed in m/s (hover to see current wind gust speed)